Change the Weather History Date:

Wednesday, March 27, 2013

  Actual Average (KDET) Record (KDET)
Temperature  
Mean Temperature 40 °F -  
Max Temperature 48 °F 49 °F 79 °F (1989)
Min Temperature 32 °F 32 °F 12 °F (1965)
Degree Days  
Heating Degree Days 25    
Moisture  
Dew Point 22 °F    
Average Humidity 51    
Maximum Humidity 70    
Minimum Humidity 32    
Precipitation  
Precipitation 0.00 in - - ()
Sea Level Pressure  
Sea Level Pressure 30.14 in    
Wind  
Wind Speed 11 mph (WNW)    
Max Wind Speed 18 mph    
Max Gust Speed 28 mph    
Visibility 10 miles    
Events      
Averages and records for this station are not official NWS values.
T = Trace of Precipitation, MM = Missing Value Source: NWS Daily Summary

Daily Weather History Graph

Daily Weather History Graph

Search for Another Location

Airport or City:

Trip Planner

Search our weather history database for the weather conditions in past years. The results will help you decide how hot, cold, wet, or windy it might be!

Date:

Astronomy

Mar. 27, 2013 Rise Set
Actual Time 7:23 AM EDT 7:53 PM EDT
Civil Twilight 6:55 AM EDT 8:21 PM EDT
Nautical Twilight 6:21 AM EDT 8:55 PM EDT
Astronomical Twilight 5:47 AM EDT 9:29 PM EDT
Moon 8:37 PM EDT (3/27) 7:12 AM EDT (3/27)
Length of Visible Light 13h 26m
Length of Day
12h 29m
Full, 100% of the Moon is Illuminated
Mar 27
Full
Apr 3
Last Quarter
Apr 10
New
Apr 18
First Quarter
Apr 25
Full

Hourly Weather History & Observations

Time (EDT) Temp. Windchill Dew Point Humidity Pressure Visibility Wind Dir Wind Speed Gust Speed Precip Events Conditions
12:14 AM 37.4 °F 31.4 °F 28.0 °F 69% 30.11 in 10.0 mi WNW 8.1 mph - N/A   Overcast
12:34 AM 37.4 °F 31.4 °F 27.3 °F 67% 30.11 in 10.0 mi WNW 8.1 mph - N/A   Overcast
12:55 AM 37.4 °F 30.8 °F 25.2 °F 61% 30.11 in 10.0 mi NW 9.2 mph - N/A   Overcast
1:14 AM 37.4 °F 30.3 °F 23.9 °F 58% 30.11 in 10.0 mi WNW 10.4 mph - N/A   Overcast
1:34 AM 37.0 °F 29.8 °F 23.9 °F 59% 30.11 in 10.0 mi NW 10.4 mph 18.4 mph N/A   Overcast
1:55 AM 36.7 °F 29.9 °F 23.5 °F 59% 30.12 in 10.0 mi NW 9.2 mph - N/A   Overcast
2:14 AM 36.5 °F 29.7 °F 23.0 °F 58% 30.12 in 10.0 mi WNW 9.2 mph - N/A   Overcast
2:34 AM 36.5 °F 30.3 °F 23.2 °F 59% 30.12 in 10.0 mi WNW 8.1 mph - N/A   Overcast
2:54 AM 35.8 °F 28.3 °F 23.2 °F 60% 30.12 in 10.0 mi WNW 10.4 mph - N/A   Overcast
3:14 AM 35.6 °F 28.0 °F 22.8 °F 60% 30.12 in 10.0 mi WNW 10.4 mph - N/A   Overcast
3:34 AM 34.9 °F 27.1 °F 22.6 °F 61% 30.12 in 10.0 mi WNW 10.4 mph - N/A   Mostly Cloudy
3:54 AM 34.2 °F 27.5 °F 22.5 °F 62% 30.12 in 10.0 mi WNW 8.1 mph - N/A   Scattered Clouds
4:14 AM 33.8 °F 27.7 °F 22.1 °F 62% 30.12 in 10.0 mi WNW 6.9 mph - N/A   Clear
4:34 AM 33.6 °F 27.5 °F 21.9 °F 62% 30.12 in 10.0 mi WNW 6.9 mph - N/A   Clear
4:54 AM 33.3 °F 27.1 °F 21.9 °F 63% 30.12 in 10.0 mi West 6.9 mph - N/A   Clear
5:14 AM 32.9 °F 26.7 °F 22.1 °F 65% 30.12 in 10.0 mi WNW 6.9 mph - N/A   Clear
5:35 AM 32.5 °F 26.2 °F 22.6 °F 67% 30.12 in 10.0 mi WNW 6.9 mph - N/A   Clear
5:54 AM 32.4 °F 26.0 °F 22.8 °F 68% 30.13 in 10.0 mi West 6.9 mph - N/A   Clear
6:15 AM 32.0 °F 24.8 °F 23.0 °F 69% 30.12 in 10.0 mi West 8.1 mph - N/A   Clear
6:34 AM 32.0 °F 24.2 °F 23.0 °F 69% 30.13 in 10.0 mi West 9.2 mph 17.3 mph N/A   Clear
6:54 AM 32.0 °F 23.6 °F 23.0 °F 69% 30.13 in 10.0 mi West 10.4 mph - N/A   Clear
7:15 AM 32.0 °F 24.2 °F 23.0 °F 69% 30.13 in 10.0 mi West 9.2 mph - N/A   Clear
7:34 AM 32.0 °F 24.2 °F 23.0 °F 69% 30.13 in 10.0 mi West 9.2 mph 16.1 mph N/A   Clear
7:54 AM 32.0 °F 24.2 °F 23.4 °F 70% 30.14 in 10.0 mi WNW 9.2 mph 19.6 mph N/A   Clear
8:14 AM 32.4 °F 23.0 °F 23.5 °F 70% 30.14 in 10.0 mi WNW 12.7 mph 18.4 mph N/A   Clear
8:34 AM 33.1 °F 24.4 °F 23.7 °F 68% 30.14 in 10.0 mi WNW 11.5 mph 19.6 mph N/A   Clear
8:55 AM 33.8 °F 24.3 °F 23.9 °F 67% 30.14 in 10.0 mi NW 13.8 mph 23.0 mph N/A   Clear
9:14 AM 34.9 °F 24.9 °F 24.3 °F 65% 30.15 in 10.0 mi NW 16.1 mph 27.6 mph N/A   Scattered Clouds
9:35 AM 34.9 °F 26.2 °F 23.9 °F 64% 30.15 in 10.0 mi WNW 12.7 mph 23.0 mph N/A   Mostly Cloudy
9:54 AM 35.6 °F 27.5 °F 23.9 °F 62% 30.15 in 10.0 mi NW 11.5 mph 21.9 mph N/A   Overcast
10:14 AM 36.5 °F 27.0 °F 23.7 °F 60% 30.15 in 10.0 mi WNW 16.1 mph 27.6 mph N/A   Overcast
10:35 AM 37.8 °F 28.0 °F 23.7 °F 57% 30.15 in 10.0 mi WNW 18.4 mph 26.5 mph N/A   Overcast
10:54 AM 38.1 °F 28.4 °F 23.5 °F 56% 30.15 in 10.0 mi NW 18.4 mph 25.3 mph N/A   Overcast
11:15 AM 39.2 °F 31.6 °F 23.0 °F 52% 30.16 in 10.0 mi NW 12.7 mph 23.0 mph N/A   Overcast
11:34 AM 40.5 °F 31.8 °F 23.5 °F 51% 30.16 in 10.0 mi WNW 17.3 mph 23.0 mph N/A   Overcast
11:54 AM 41.7 °F 33.4 °F 23.2 °F 48% 30.16 in 10.0 mi WNW 17.3 mph - N/A   Overcast
12:15 PM 42.6 °F 35.2 °F 22.5 °F 45% 30.16 in 10.0 mi WNW 15.0 mph 24.2 mph N/A   Overcast
12:34 PM 44.8 °F 38.0 °F 22.8 °F 42% 30.16 in 10.0 mi WNW 15.0 mph 23.0 mph N/A   Overcast
12:54 PM 45.0 °F 37.6 °F 22.3 °F 41% 30.16 in 10.0 mi WNW 17.3 mph 23.0 mph N/A   Overcast
1:15 PM 45.5 °F 39.6 °F 22.3 °F 40% 30.16 in 10.0 mi WNW 12.7 mph 20.7 mph N/A   Overcast
1:34 PM 46.2 °F 39.5 °F 21.4 °F 37% 30.15 in 10.0 mi WNW 16.1 mph 21.9 mph N/A   Overcast
1:54 PM 45.9 °F 38.8 °F 20.7 °F 37% 30.14 in 10.0 mi NNW 17.3 mph 23.0 mph N/A   Mostly Cloudy
2:15 PM 47.3 °F - 19.0 °F 33% 30.14 in 10.0 mi WNW 17.3 mph 26.5 mph N/A   Scattered Clouds
2:34 PM 48.4 °F - 19.4 °F 32% 30.14 in 10.0 mi West 16.1 mph 21.9 mph N/A   Mostly Cloudy
2:55 PM 46.8 °F - 19.2 °F 33% 30.14 in 10.0 mi West 11.5 mph 20.7 mph N/A   Mostly Cloudy
3:14 PM 48.6 °F - 19.9 °F 32% 30.14 in 10.0 mi West 15.0 mph 24.2 mph N/A   Overcast
3:34 PM 46.8 °F - 19.2 °F 33% 30.13 in 10.0 mi NW 16.1 mph 21.9 mph N/A   Mostly Cloudy
3:55 PM 46.8 °F - 19.8 °F 34% 30.13 in 10.0 mi WNW 15.0 mph 24.2 mph N/A   Mostly Cloudy
4:14 PM 48.4 °F - 19.9 °F 32% 30.13 in 10.0 mi WNW 17.3 mph 24.2 mph N/A   Mostly Cloudy
4:34 PM 47.8 °F - 20.3 °F 34% 30.13 in 10.0 mi WNW 15.0 mph 23.0 mph N/A   Mostly Cloudy
4:54 PM 47.7 °F - 21.2 °F 35% 30.13 in 10.0 mi NW 16.1 mph 25.3 mph N/A   Overcast
5:14 PM 46.4 °F 39.8 °F 21.7 °F 38% 30.14 in 10.0 mi WNW 16.1 mph 24.2 mph N/A   Overcast
5:35 PM 46.6 °F - 21.6 °F 37% 30.14 in 10.0 mi West 16.1 mph 24.2 mph N/A   Overcast
5:54 PM 46.4 °F 40.4 °F 21.4 °F 37% 30.14 in 10.0 mi WNW 13.8 mph 21.9 mph N/A   Overcast
6:14 PM 46.4 °F 40.7 °F 21.4 °F 37% 30.14 in 10.0 mi WNW 12.7 mph 23.0 mph N/A   Overcast
6:35 PM 45.9 °F 39.1 °F 21.0 °F 37% 30.14 in 10.0 mi WNW 16.1 mph 23.0 mph N/A   Overcast
6:54 PM 45.5 °F 38.3 °F 21.0 °F 38% 30.15 in 10.0 mi WNW 17.3 mph 23.0 mph N/A   Overcast
7:14 PM 45.5 °F 39.2 °F 21.2 °F 38% 30.15 in 10.0 mi West 13.8 mph 21.9 mph N/A   Overcast
7:35 PM 45.1 °F 39.1 °F 21.4 °F 39% 30.15 in 10.0 mi WNW 12.7 mph 19.6 mph N/A   Overcast
7:54 PM 44.6 °F 38.1 °F 21.9 °F 41% 30.15 in 10.0 mi WNW 13.8 mph - N/A   Overcast
8:14 PM 44.2 °F 39.2 °F 22.1 °F 42% 30.15 in 10.0 mi West 9.2 mph - N/A   Mostly Cloudy
8:34 PM 43.9 °F 38.3 °F 22.5 °F 43% 30.16 in 10.0 mi WNW 10.4 mph - N/A   Overcast
8:54 PM 43.7 °F 39.1 °F 22.8 °F 44% 30.16 in 10.0 mi West 8.1 mph - N/A   Mostly Cloudy
9:15 PM 43.7 °F 38.6 °F 23.0 °F 44% 30.17 in 10.0 mi WNW 9.2 mph 17.3 mph N/A   Overcast
9:34 PM 43.7 °F 37.7 °F 23.0 °F 44% 30.17 in 10.0 mi WNW 11.5 mph - N/A   Overcast
9:54 PM 43.2 °F 35.9 °F 23.0 °F 45% 30.18 in 10.0 mi WNW 15.0 mph - N/A   Overcast
10:15 PM 43.0 °F 36.4 °F 22.5 °F 44% 30.18 in 10.0 mi WNW 12.7 mph 17.3 mph N/A   Overcast
10:34 PM 42.8 °F 35.8 °F 22.3 °F 44% 30.18 in 10.0 mi WNW 13.8 mph 17.3 mph N/A   Overcast
10:55 PM 42.3 °F 37.3 °F 22.1 °F 45% 30.18 in 10.0 mi WNW 8.1 mph 11.5 mph N/A   Overcast
11:14 PM 41.9 °F 37.5 °F 22.1 °F 45% 30.19 in 10.0 mi WNW 6.9 mph 16.1 mph N/A   Overcast
11:34 PM 41.5 °F 35.9 °F 22.1 °F 46% 30.19 in 10.0 mi WNW 9.2 mph - N/A   Overcast
11:55 PM 41.0 °F 38.0 °F 22.5 °F 48% 30.20 in 10.0 mi WNW 4.6 mph - N/A   Overcast